Change the Weather History Date:

Wednesday, August 28, 2013

  Actual Average Record
Temperature  
Mean Temperature 76 °F 80 °F  
Max Temperature 89 °F 91 °F 106 °F (1943)
Min Temperature 62 °F 70 °F 57 °F (1958)
Degree Days  
Heating Degree Days 0 0  
Month to date heating degree days 0 0  
Since 1 June heating degree days 0 0  
Since 1 July heating degree days 0 0  
Cooling Degree Days 11 15  
Month to date cooling degree days 473 462  
Year to date cooling degree days 1714 1757  
Since 1 June cooling degree days 1396 1399  
Growing Degree Days 26 (Base 50)    
Moisture  
Dew Point 63 °F    
Average Humidity 67    
Maximum Humidity 93    
Minimum Humidity 40    
Precipitation  
Precipitation 0.00 in 0.11 in 2.65 in (2004)
Month to date precipitation 3.05 3.91  
Year to date precipitation 43.75 36.95  
Sea Level Pressure  
Sea Level Pressure 30.06 in    
Wind  
Wind Speed 1 mph (ESE)    
Max Wind Speed 12 mph    
Max Gust Speed 15 mph    
Visibility 9 miles    
Events      
T = Trace of Precipitation, MM = Missing Value Source: NWS Daily Summary

Daily Weather History Graph

Daily Weather History Graph

Search for Another Location

Airport or City:

Trip Planner

Search our weather history database for the weather conditions in past years. The results will help you decide how hot, cold, wet, or windy it might be!

Date:

Astronomy

Aug. 28, 2013 Rise Set
Actual Time 6:33 AM CDT 7:29 PM CDT
Civil Twilight 6:07 AM CDT 7:54 PM CDT
Nautical Twilight 5:38 AM CDT 8:24 PM CDT
Astronomical Twilight 5:07 AM CDT 8:54 PM CDT
Moon No Moon Rise 1:57 PM CDT (8/28)
Length of Visible Light 13h 46m
Length of Day
12h 56m
Waning Gibbous, 47% of the Moon is Illuminated
Aug 28
Waning Gibbous
Sep 5
New
Sep 12
First Quarter
Sep 19
Full
Sep 26
Last Quarter

Hourly Weather History & Observations

Time (CDT) Temp. Heat Index Dew Point Humidity Pressure Visibility Wind Dir Wind Speed Gust Speed Precip Events Conditions
12:54 AM 69.1 °F - 64.0 °F 84% - 10.0 mi Calm Calm - N/A   Clear
1:54 AM 66.0 °F - 63.0 °F 90% - 10.0 mi Calm Calm - N/A   Clear
2:54 AM 66.0 °F - 62.1 °F 87% - 8.0 mi Calm Calm - N/A   Clear
3:54 AM 64.0 °F - 62.1 °F 93% - 8.0 mi Calm Calm - N/A   Clear
4:54 AM 64.0 °F - 62.1 °F 93% - 7.0 mi Calm Calm - 0.01 in   Clear
5:54 AM 63.0 °F - 61.0 °F 93% 30.07 in 6.0 mi Calm Calm - N/A   Clear
6:54 AM 64.0 °F - 63.0 °F 96% 30.01 in 5.0 mi Calm Calm - N/A   Clear
7:54 AM 69.1 °F - 64.9 °F 87% 30.10 in 7.0 mi Calm Calm - N/A   Clear
8:54 AM 75.0 °F - 64.9 °F 71% 30.11 in 10.0 mi Calm Calm - N/A   Clear
9:54 AM 81.0 °F 81.7 °F 61.0 °F 50% 30.11 in 10.0 mi Calm Calm - N/A   Clear
10:54 AM 82.9 °F 84.0 °F 63.0 °F 51% 30.11 in 10.0 mi Variable 4.6 mph - N/A   Clear
11:54 AM 84.9 °F 85.4 °F 62.1 °F 46% 30.09 in 10.0 mi Variable 5.8 mph - N/A   Scattered Clouds
12:54 PM 86.0 °F 86.1 °F 61.0 °F 43% 30.08 in 10.0 mi East 6.9 mph - N/A   Mostly Cloudy
1:54 PM 87.1 °F 87.8 °F 63.0 °F 44% 30.07 in 10.0 mi SSE 5.8 mph - N/A   Scattered Clouds
2:54 PM 88.0 °F 88.4 °F 62.1 °F 42% 30.05 in 10.0 mi Calm Calm - N/A   Mostly Cloudy
3:54 PM 89.1 °F 89.3 °F 62.1 °F 40% 30.04 in 10.0 mi Calm Calm - N/A   Mostly Cloudy
4:54 PM 88.0 °F 88.4 °F 62.1 °F 42% 30.03 in 10.0 mi NNW 3.5 mph - N/A   Scattered Clouds
5:54 PM 87.1 °F 87.0 °F 61.0 °F 41% 30.03 in 10.0 mi Calm Calm - N/A   Partly Cloudy
6:54 PM 84.9 °F 85.9 °F 63.0 °F 48% 30.03 in 10.0 mi Calm Calm - N/A   Partly Cloudy
7:54 PM 78.1 °F - 64.9 °F 64% 30.03 in 10.0 mi Calm Calm - N/A   Clear
8:54 PM 73.9 °F - 66.0 °F 76% 30.04 in 10.0 mi Calm Calm - N/A   Clear
9:54 PM 73.0 °F - 66.0 °F 79% 30.04 in 10.0 mi Calm Calm - N/A   Clear
10:54 PM 71.1 °F - 64.9 °F 81% 30.04 in 10.0 mi Calm Calm - N/A   Clear
11:54 PM 70.0 °F - 66.0 °F 87% 30.05 in 10.0 mi Calm Calm - N/A   Clear